Find Starlink 34005

NORAD ID: 63935 Int'l Des: 2025-098 Owner: SPXS Country: US Constellation: starlink operational
LEOCIRCULAR

現在のビュー

3D地球を読み込み中...

About Starlink 34005

Starlink 34005 (NORAD 63935) is a starlink constellation satellite (v2 mini) launched May 13, 2025 by SPXS of US. It operates in LEO, CIRCULAR orbit with a mass of 575.00 kg.

Starlink 34005について

説明を読み込み中...

次回通過

Passes for default location (London). Set your location on the main map for personalized predictions.

高度履歴

Loading altitude history...

軌道要素

1 63935U 25098K 26194.76924493 .00001096 00000-0 99650-4 0 9995
2 63935 70.0021 316.7334 0003302 267.6748 92.4033 14.98332474 65448
Epoch: Jul 13, 2026 • Age: 22 hours

現在のステータス

高度 589.1 km
遠地点 / 近地点 N/A
速度 7.57 km/s
衛星直下点 -50.01°S, 106.52°E
打ち上げ日 May 13, 2025
運用期間 1.1 years
タイプ internet

技術仕様

分類 Payload
質量 575.00 kg
乾燥質量 530.00 kg
総質量 575.00 kg
長さ 0.30 m
直径 4.10 m
スパン 29.00 m
形状 Box + pan
製造者 SPXS
バスタイプ Starlink V2MO
フェーズステータス In Orbit
所有者/国 SPXS/US

Most Searched